Great Bend, NY

3:16 AM EDT on July 29, 2016 (GMT -0400)
Wheeler-Sack Army Air Field

Weather History for KGTB - July, 2013

Change the Weather History Date:

Wednesday, July 17, 2013

  Actual Average Record
Temperature  
Mean Temperature 80 °F -  
Max Temperature 89 °F 76 °F 91 °F (2012)
Min Temperature 71 °F 56 °F 52 °F (2015)
Cooling Degree Days 15    
Growing Degree Days 30 (Base 50)    
Moisture  
Dew Point 73 °F    
Average Humidity 81    
Maximum Humidity 100    
Minimum Humidity 64    
Precipitation  
Precipitation 0.06 in - - ()
Sea Level Pressure  
Sea Level Pressure 30.12 in    
Wind  
Wind Speed 7 mph (WSW)    
Max Wind Speed 13 mph    
Max Gust Speed 28 mph    
Visibility 10 miles    
Events Rain , Thunderstorm    
Averages and records for this station are not official NWS values.
T = Trace of Precipitation, MM = Missing Value Source: NWS Daily Summary

Daily Weather History Graph

Daily Weather History Graph

Search for Another Location

Airport or City:

Trip Planner

Search our weather history database for the weather conditions in past years. The results will help you decide how hot, cold, wet, or windy it might be!

Date:

Astronomy

Jul. 17, 2013 Rise Set
Actual Time 5:35 AM EDT 8:41 PM EDT
Civil Twilight 5:01 AM EDT 9:16 PM EDT
Nautical Twilight 4:16 AM EDT 10:00 PM EDT
Astronomical Twilight 3:22 AM EDT 10:54 PM EDT
Moon 3:25 PM EDT (7/17) 12:45 AM EDT (7/17)
Length of Visible Light 16h 15m
Length of Day
15h 05m
Waxing Gibbous, 67% of the Moon is Illuminated
Jul 17
Waxing Gibbous
Jul 22
Full
Jul 29
Last Quarter
Aug 6
New
Aug 14
First Quarter

Hourly Weather History & Observations

Time (EDT) Temp. Heat Index Dew Point Humidity Pressure Visibility Wind Dir Wind Speed Gust Speed Precip Events Conditions
12:58 AM 72.0 °F - 66.7 °F 84% 30.19 in 10.0 mi SSW 6.9 mph - N/A   Clear
1:58 AM 71.6 °F - 66.9 °F 85% 30.18 in 10.0 mi South 5.8 mph - N/A   Clear
2:58 AM 72.7 °F - 66.9 °F 82% 30.18 in 10.0 mi SSW 4.6 mph - N/A   Clear
3:58 AM 75.0 °F - 66.7 °F 75% 30.18 in 10.0 mi SW 5.8 mph - N/A   Clear
4:58 AM 75.4 °F - 67.1 °F 75% 30.18 in 10.0 mi SW 6.9 mph - N/A   Clear
5:58 AM 74.5 °F - 66.9 °F 77% 30.19 in 10.0 mi SW 5.8 mph - N/A   Clear
6:58 AM 75.2 °F - 67.8 °F 78% 30.20 in 10.0 mi SW 5.8 mph - N/A   Clear
7:58 AM 78.4 °F - 70.3 °F 76% 30.20 in 10.0 mi WSW 6.9 mph - N/A   Clear
8:58 AM 81.5 °F 86.1 °F 72.1 °F 73% 30.19 in 10.0 mi WSW 5.8 mph - N/A   Clear
9:58 AM 83.8 °F 90.8 °F 74.1 °F 72% 30.19 in 10.0 mi West 8.1 mph - N/A   Clear
10:58 AM 85.8 °F 94.2 °F 74.5 °F 69% 30.18 in 10.0 mi WSW 9.2 mph - N/A   Clear
11:58 AM 87.8 °F 98.1 °F 75.6 °F 67% 30.16 in 10.0 mi WSW 9.2 mph - N/A   Clear
12:58 PM 89.1 °F 99.6 °F 75.6 °F 64% 30.15 in 10.0 mi SW 9.2 mph 16.1 mph N/A   Clear
1:58 PM 89.4 °F 101.1 °F 76.3 °F 65% 30.11 in 10.0 mi West 10.4 mph - N/A   Clear
2:58 PM 88.9 °F 99.7 °F 75.9 °F 65% 30.11 in 10.0 mi WSW 9.2 mph 21.9 mph N/A   Clear
3:58 PM 82.8 °F 90.4 °F 75.6 °F 79% 30.07 in 10.0 mi WSW 10.4 mph - N/A   Clear
4:58 PM 82.9 °F 89.9 °F 74.7 °F 76% 30.08 in 10.0 mi West 4.6 mph - N/A   Clear
5:58 PM 86.0 °F 96.0 °F 76.1 °F 72% 30.06 in 9.0 mi WSW 8.1 mph - N/A   Clear
6:58 PM 84.9 °F 93.7 °F 75.4 °F 73% 30.04 in 10.0 mi West 9.2 mph 21.9 mph N/A   Clear
7:22 PM 84.2 °F 92.3 °F 75.2 °F 74% 30.07 in 9.0 mi WNW 8.1 mph - N/A Rain Light Rain
7:29 PM 82.4 °F 89.5 °F 75.2 °F 79% 30.08 in 9.0 mi Variable 6.9 mph - N/A Rain , Thunderstorm Light Thunderstorms and Rain
7:45 PM 77.0 °F - 73.4 °F 89% 30.06 in 2.0 mi WSW 12.7 mph 27.6 mph N/A Rain , Thunderstorm Heavy Thunderstorms and Rain
7:55 PM 75.2 °F - 75.2 °F 100% 30.06 in 10.0 mi SW 10.4 mph - N/A Rain , Thunderstorm Light Thunderstorms and Rain
7:58 PM 76.1 °F - 74.8 °F 96% 30.05 in 10.0 mi SW 8.1 mph - 0.06 in Rain , Thunderstorm Light Thunderstorms and Rain
7:59 PM 75.2 °F - 75.2 °F 100% 30.06 in 10.0 mi SW 8.1 mph - N/A Thunderstorm Thunderstorm
8:06 PM 75.2 °F - 75.2 °F 100% 30.06 in 10.0 mi WSW 6.9 mph - N/A Thunderstorm Partly Cloudy
8:58 PM 77.4 °F - 76.8 °F 98% 30.04 in 10.0 mi SW 4.6 mph - 0.00 in   Clear
9:58 PM 77.4 °F - 76.1 °F 96% 30.05 in 10.0 mi NNW 6.9 mph - N/A   Scattered Clouds
10:58 PM 75.4 °F - 75.4 °F 100% 30.05 in 9.0 mi WNW 2.3 mph - N/A   Clear
11:58 PM 74.8 °F - 74.8 °F 100% 30.06 in 10.0 mi WSW 3.5 mph - N/A   Clear